| time (UTC) | temp F | wind direction | speed MPH | gust MPH | rain 1hr in | rain 24hr in | rain mn in | humidity % | barometer mb |
| 20260504234321 | 71 | 191 | 1.0 | 8.0 | 0.00 | 0.02 | 0.02 | 65 | 1011.3 |
| 20260504233831 | 71 | 124 | 1.0 | 8.0 | 0.00 | 0.02 | 0.02 | 65 | 1011.4 |
| 20260504233331 | 72 | 143 | 0.0 | 5.0 | 0.00 | 0.02 | 0.02 | 64 | 1011.5 |
| 20260504232821 | 71 | 152 | 1.0 | 6.0 | 0.00 | 0.02 | 0.02 | 66 | 1011.4 |
| 20260504232328 | 70 | 164 | 2.0 | 8.0 | 0.00 | 0.02 | 0.02 | 66 | 1011.5 |
| 20260504231318 | 71 | 212 | 0.0 | 8.0 | 0.00 | 0.02 | 0.02 | 65 | 1011.5 |
| 20260504230828 | 71 | 195 | 1.0 | 4.0 | 0.00 | 0.02 | 0.02 | 64 | 1011.6 |
| 20260504225817 | 72 | 192 | 1.0 | 4.0 | 0.00 | 0.02 | 0.02 | 63 | 1011.6 |
| 20260504225324 | 72 | 178 | 0.0 | 5.0 | 0.00 | 0.02 | 0.02 | 63 | 1011.8 |
| 20260504224825 | 72 | 330 | 0.0 | 5.0 | 0.00 | 0.02 | 0.02 | 62 | 1011.9 |
| 20260504224331 | 71 | 232 | 0.0 | 5.0 | 0.00 | 0.02 | 0.02 | 64 | 1011.8 |
| 20260504223819 | 70 | 217 | 0.0 | 5.0 | 0.00 | 0.02 | 0.02 | 64 | 1011.9 |
| 20260504223318 | 70 | 295 | 1.0 | 7.0 | 0.00 | 0.02 | 0.02 | 65 | 1011.9 |
| 20260504222827 | 70 | 133 | 3.0 | 7.0 | 0.00 | 0.02 | 0.02 | 64 | 1011.9 |
| 20260504222313 | 70 | 130 | 2.0 | 7.0 | 0.00 | 0.02 | 0.02 | 65 | 1012.0 |
| 20260504221816 | 70 | 302 | 0.0 | 5.0 | 0.00 | 0.02 | 0.02 | 64 | 1012.1 |
| 20260504221322 | 69 | 324 | 1.0 | 6.0 | 0.00 | 0.02 | 0.02 | 64 | 1012.1 |
| 20260504220825 | 70 | 200 | 2.0 | 6.0 | 0.00 | 0.02 | 0.02 | 64 | 1012.2 |
| 20260504220332 | 69 | 275 | 0.0 | 8.0 | 0.00 | 0.02 | 0.02 | 65 | 1012.3 |
| 20260504215815 | 69 | 210 | 1.0 | 8.0 | 0.00 | 0.02 | 0.02 | 64 | 1012.3 |
| 20260504215315 | 70 | 134 | 1.0 | 4.0 | 0.00 | 0.02 | 0.02 | 64 | 1012.4 |
| 20260504214818 | 70 | 1 | 1.0 | 3.0 | 0.00 | 0.02 | 0.02 | 64 | 1012.4 |
| 20260504214325 | 71 | 342 | 1.0 | 6.0 | 0.00 | 0.02 | 0.02 | 62 | 1012.4 |
| 20260504213827 | 69 | 289 | 1.0 | 6.0 | 0.00 | 0.02 | 0.02 | 66 | 1012.5 |
| 20260504213335 | 68 | 70 | 2.0 | 5.0 | 0.00 | 0.02 | 0.02 | 67 | 1012.5 |
| 20260504212817 | 67 | 306 | 2.0 | 6.0 | 0.00 | 0.02 | 0.02 | 67 | 1012.6 |
| 20260504211813 | 68 | 328 | 0.0 | 5.0 | 0.00 | 0.02 | 0.02 | 65 | 1012.6 |
| 20260504211321 | 68 | 308 | 0.0 | 5.0 | 0.01 | 0.02 | 0.02 | 66 | 1012.8 |
| 20260504210824 | 67 | 180 | 2.0 | 5.0 | 0.01 | 0.02 | 0.02 | 67 | 1012.9 |
| 20260504210329 | 66 | 345 | 0.0 | 5.0 | 0.01 | 0.02 | 0.02 | 68 | 1012.9 |
| 20260504205820 | 67 | 243 | 1.0 | 5.0 | 0.01 | 0.02 | 0.02 | 67 | 1013.0 |
| 20260504205317 | 66 | 266 | 0.0 | 7.0 | 0.01 | 0.02 | 0.02 | 68 | 1013.1 |
| 20260504204826 | 66 | 327 | 1.0 | 7.0 | 0.01 | 0.02 | 0.02 | 69 | 1013.1 |
| 20260504204349 | 66 | 163 | 0.0 | 7.0 | 0.01 | 0.02 | 0.02 | 69 | 1013.2 |
| 20260504203859 | 65 | 210 | 1.0 | 8.0 | 0.01 | 0.02 | 0.02 | 69 | 1013.3 |
| 20260504203338 | 65 | 143 | 0.0 | 7.0 | 0.01 | 0.02 | 0.02 | 71 | 1013.2 |
| 20260504202847 | 65 | 309 | 0.0 | 7.0 | 0.01 | 0.02 | 0.02 | 71 | 1013.3 |
| 20260504202346 | 64 | 140 | 2.0 | 5.0 | 0.01 | 0.02 | 0.02 | 72 | 1013.3 |
| 20260504201834 | 64 | 4 | 1.0 | 6.0 | 0.01 | 0.02 | 0.02 | 73 | 1013.4 |
| 20260504201339 | 63 | 105 | 1.0 | 10.0 | 0.00 | 0.01 | 0.01 | 74 | 1013.5 |
| 20260504200842 | 62 | 214 | 2.0 | 10.0 | 0.00 | 0.01 | 0.01 | 75 | 1013.4 |
| 20260504200345 | 62 | 312 | 1.0 | 7.0 | 0.00 | 0.01 | 0.01 | 75 | 1013.6 |
| 20260504195834 | 63 | 104 | 1.0 | 3.0 | 0.00 | 0.01 | 0.01 | 74 | 1013.7 |
| 20260504195333 | 62 | 115 | 0.0 | 9.0 | 0.00 | 0.01 | 0.01 | 76 | 1013.7 |
| 20260504194841 | 62 | 122 | 2.0 | 9.0 | 0.00 | 0.01 | 0.01 | 76 | 1013.7 |
| 20260504194347 | 62 | 16 | 0.0 | 7.0 | 0.00 | 0.01 | 0.01 | 75 | 1013.7 |
| 20260504193856 | 62 | 15 | 0.0 | 5.0 | 0.00 | 0.01 | 0.01 | 77 | 1013.7 |
| 20260504193335 | 61 | 174 | 1.0 | 8.0 | 0.01 | 0.01 | 0.01 | 78 | 1013.7 |
| 20260504192844 | 60 | 168 | 0.0 | 6.0 | 0.01 | 0.01 | 0.01 | 79 | 1013.8 |
| 20260504192351 | 60 | 158 | 0.0 | 5.0 | 0.01 | 0.01 | 0.01 | 80 | 1013.9 |
| 20260504191813 | 60 | 105 | 0.0 | 5.0 | 0.01 | 0.01 | 0.01 | 80 | 1013.9 |
| 20260504191313 | 60 | 338 | 0.0 | 5.0 | 0.01 | 0.01 | 0.01 | 80 | 1013.9 |
| 20260504190822 | 59 | 223 | 1.0 | 4.0 | 0.01 | 0.01 | 0.01 | 80 | 1013.9 |
| 20260504190330 | 59 | 258 | 1.0 | 4.0 | 0.01 | 0.01 | 0.01 | 81 | 1013.9 |
| 20260504185812 | 58 | 285 | 1.0 | 7.0 | 0.01 | 0.01 | 0.01 | 83 | 1013.9 |
| 20260504185312 | 58 | 300 | 0.0 | 6.0 | 0.01 | 0.01 | 0.01 | 82 | 1014.0 |
| 20260504184822 | 58 | 175 | 0.0 | 5.0 | 0.01 | 0.01 | 0.01 | 83 | 1014.1 |
| 20260504184322 | 58 | 223 | 1.0 | 4.0 | 0.01 | 0.01 | 0.01 | 83 | 1014.1 |
| 20260504183825 | 57 | 210 | 0.0 | 6.0 | 0.01 | 0.01 | 0.01 | 84 | 1014.1 |
| 20260504183313 | 57 | 128 | 2.0 | 6.0 | 0.00 | 0.00 | 0.00 | 84 | 1014.1 |
| 20260504182815 | 57 | 291 | 2.0 | 6.0 | 0.00 | 0.00 | 0.00 | 84 | 1014.0 |
| 20260504182315 | 57 | 324 | 0.0 | 2.0 | 0.00 | 0.00 | 0.00 | 83 | 1014.0 |
| 20260504181825 | 57 | 352 | 0.0 | 4.0 | 0.00 | 0.00 | 0.00 | 85 | 1014.0 |
| 20260504181325 | 57 | 293 | 1.0 | 4.0 | 0.00 | 0.00 | 0.00 | 84 | 1014.0 |
| 20260504180835 | 57 | 312 | 0.0 | 3.0 | 0.00 | 0.00 | 0.00 | 85 | 1014.0 |
| 20260504180315 | 57 | 302 | 0.0 | 3.0 | 0.00 | 0.00 | 0.00 | 85 | 1014.0 |
| 20260504175824 | 56 | 294 | 0.0 | 1.0 | 0.00 | 0.00 | 0.00 | 86 | 1014.0 |
| 20260504175330 | 56 | 263 | 0.0 | 3.0 | 0.00 | 0.00 | 0.00 | 86 | 1014.0 |
| 20260504174820 | 56 | 90 | 0.0 | 3.0 | 0.00 | 0.00 | 0.00 | 86 | 1013.9 |
| 20260504174319 | 56 | 307 | 0.0 | 8.0 | 0.00 | 0.00 | 0.00 | 87 | 1014.0 |
| 20260504173828 | 56 | 313 | 1.0 | 8.0 | 0.00 | 0.00 | 0.00 | 87 | 1013.9 |
| 20260504173330 | 56 | 243 | 0.0 | 5.0 | 0.00 | 0.00 | 0.00 | 87 | 1013.9 |
| 20260504172819 | 56 | 294 | 0.0 | 5.0 | 0.00 | 0.00 | 0.00 | 88 | 1013.9 |
| 20260504172325 | 55 | 309 | 0.0 | 3.0 | 0.00 | 0.00 | 0.00 | 88 | 1013.8 |
| 20260504171834 | 55 | 210 | 0.0 | 4.0 | 0.00 | 0.00 | 0.00 | 88 | 1013.8 |
| 20260504171313 | 55 | 1 | 0.0 | 2.0 | 0.00 | 0.00 | 0.00 | 89 | 1013.8 |
| 20260504170816 | 55 | 312 | 0.0 | 8.0 | 0.00 | 0.00 | 0.00 | 89 | 1013.8 |
| 20260504170316 | 55 | 314 | 1.0 | 8.0 | 0.00 | 0.00 | 0.00 | 89 | 1013.7 |
| 20260504160332 | 54 | 313 | 0.0 | 5.0 | 0.00 | 0.00 | 0.00 | 91 | 1013.8 |
| 20260504150336 | 52 | 158 | 0.0 | 8.0 | 0.00 | 0.00 | 0.00 | 92 | 1013.2 |
| 20260504141321 | 52 | 294 | 1.0 | 6.0 | 0.00 | 0.00 | 0.00 | 93 | 1012.7 |
| 20260504140831 | 52 | 323 | 0.0 | 6.0 | 0.00 | 0.00 | 0.00 | 93 | 1012.6 |
| 20260504140331 | 51 | 281 | 0.0 | 6.0 | 0.00 | 0.00 | 0.00 | 93 | 1012.5 |
| 20260504130333 | 51 | 38 | 0.0 | 9.0 | 0.00 | 0.00 | 0.00 | 92 | 1011.5 |
| 20260504110330 | 56 | 205 | 4.0 | 12.0 | 0.00 | 0.00 | 0.00 | 84 | 1010.3 |
| 20260504100320 | 60 | 185 | 2.0 | 10.0 | 0.00 | 0.00 | 0.00 | 76 | 1009.7 |
| 20260504081812 | 68 | 216 | 0.0 | 0.0 | 0.00 | 0.00 | 0.00 | 53 | 1009.2 |
| 20260504081319 | 68 | 216 | 0.0 | 0.0 | 0.00 | 0.00 | 0.00 | 52 | 1009.2 |
| 20260504080822 | 68 | 216 | 0.0 | 0.0 | 0.00 | 0.00 | 0.00 | 51 | 1009.1 |
| 20260504080329 | 68 | 216 | 0.0 | 0.0 | 0.00 | 0.00 | 0.00 | 51 | 1009.1 |
| 20260504070335 | 71 | 217 | 0.0 | 0.0 | 0.00 | 0.00 | 0.00 | 44 | 1008.8 |
| 20260504050332 | 78 | 319 | 0.0 | 4.0 | 0.00 | 0.00 | 0.00 | 36 | 1008.3 |
| 20260504045814 | 78 | 307 | 1.0 | 8.0 | 0.00 | 0.00 | 0.00 | 35 | 1008.3 |
| 20260504045322 | 79 | 281 | 0.0 | 8.0 | 0.00 | 0.00 | 0.00 | 35 | 1008.3 |
| 20260504044824 | 79 | 335 | 2.0 | 8.0 | 0.00 | 0.00 | 0.00 | 34 | 1008.2 |
| 20260504044323 | 79 | 342 | 0.0 | 10.0 | 0.00 | 0.00 | 0.00 | 34 | 1008.3 |
| 20260504043320 | 79 | 312 | 1.0 | 8.0 | 0.00 | 0.00 | 0.00 | 34 | 1008.2 |
| 20260504042822 | 79 | 330 | 2.0 | 8.0 | 0.00 | 0.00 | 0.00 | 34 | 1008.2 |
| 20260504042336 | 79 | 23 | 1.0 | 8.0 | 0.00 | 0.00 | 0.00 | 34 | 1008.2 |
| 20260504041820 | 80 | 325 | 1.0 | 7.0 | 0.00 | 0.00 | 0.00 | 33 | 1008.1 |
| 20260504041339 | 79 | 31 | 0.0 | 8.0 | 0.00 | 0.00 | 0.00 | 33 | 1008.1 |
| 20260504040844 | 80 | 300 | 1.0 | 8.0 | 0.00 | 0.00 | 0.00 | 34 | 1008.1 |
| 20260504040350 | 80 | 307 | 0.0 | 4.0 | 0.00 | 0.00 | 0.00 | 34 | 1008.0 |
| 20260504035859 | 80 | 344 | 1.0 | 6.0 | 0.00 | 0.00 | 0.00 | 34 | 1008.0 |
| 20260504035338 | 80 | 321 | 2.0 | 7.0 | 0.00 | 0.00 | 0.00 | 34 | 1007.9 |
| 20260504034847 | 80 | 35 | 1.0 | 7.0 | 0.00 | 0.00 | 0.00 | 34 | 1007.9 |
| 20260504034352 | 80 | 351 | 1.0 | 10.0 | 0.00 | 0.00 | 0.00 | 35 | 1007.8 |
| 20260504033836 | 81 | 305 | 3.0 | 10.0 | 0.00 | 0.00 | 0.00 | 35 | 1007.8 |
| 20260504033341 | 81 | 2 | 0.0 | 6.0 | 0.00 | 0.00 | 0.00 | 35 | 1007.8 |
| 20260504032851 | 81 | 1 | 0.0 | 5.0 | 0.00 | 0.00 | 0.00 | 35 | 1007.7 |
| 20260504032350 | 81 | 20 | 1.0 | 5.0 | 0.00 | 0.00 | 0.00 | 35 | 1007.7 |
| 20260504031839 | 82 | 348 | 1.0 | 5.0 | 0.00 | 0.00 | 0.00 | 34 | 1007.7 |
| 20260504031338 | 82 | 331 | 1.0 | 6.0 | 0.00 | 0.00 | 0.00 | 33 | 1007.6 |
| 20260504030847 | 82 | 326 | 1.0 | 6.0 | 0.00 | 0.00 | 0.00 | 33 | 1007.6 |
| 20260504030334 | 82 | 7 | 1.0 | 6.0 | 0.00 | 0.00 | 0.00 | 33 | 1007.6 |
| 20260504025835 | 83 | 354 | 0.0 | 7.0 | 0.00 | 0.00 | 0.00 | 32 | 1007.6 |
| 20260504025343 | 83 | 317 | 0.0 | 7.0 | 0.00 | 0.00 | 0.00 | 33 | 1007.6 |
| 20260504024832 | 83 | 315 | 3.0 | 7.0 | 0.00 | 0.00 | 0.00 | 32 | 1007.6 |
| 20260504024312 | 84 | 332 | 0.0 | 7.0 | 0.00 | 0.00 | 0.00 | 32 | 1007.6 |
| 20260504023815 | 84 | 346 | 4.0 | 7.0 | 0.00 | 0.00 | 0.00 | 32 | 1007.6 |
| 20260504023315 | 84 | 321 | 1.0 | 9.0 | 0.00 | 0.00 | 0.00 | 31 | 1007.5 |
| 20260504022825 | 84 | 341 | 2.0 | 9.0 | 0.00 | 0.00 | 0.00 | 31 | 1007.5 |
| 20260504022325 | 84 | 321 | 3.0 | 6.0 | 0.00 | 0.00 | 0.00 | 31 | 1007.5 |
| 20260504021835 | 84 | 8 | 1.0 | 8.0 | 0.00 | 0.00 | 0.00 | 30 | 1007.5 |
| 20260504021315 | 85 | 354 | 4.0 | 7.0 | 0.00 | 0.00 | 0.00 | 30 | 1007.5 |
| 20260504020324 | 85 | 330 | 0.0 | 4.0 | 0.00 | 0.00 | 0.00 | 29 | 1007.6 |
| 20260504015814 | 85 | 323 | 0.0 | 9.0 | 0.00 | 0.00 | 0.00 | 29 | 1007.6 |
| 20260504015314 | 85 | 10 | 1.0 | 9.0 | 0.00 | 0.00 | 0.00 | 29 | 1007.6 |
| 20260504014817 | 85 | 349 | 1.0 | 10.0 | 0.00 | 0.00 | 0.00 | 28 | 1007.6 |
| 20260504014324 | 86 | 338 | 1.0 | 10.0 | 0.00 | 0.00 | 0.00 | 27 | 1007.6 |
| 20260504013827 | 86 | 310 | 0.0 | 5.0 | 0.00 | 0.00 | 0.00 | 27 | 1007.6 |
| 20260504013334 | 86 | 351 | 2.0 | 8.0 | 0.00 | 0.00 | 0.00 | 26 | 1007.6 |
| 20260504012817 | 86 | 343 | 4.0 | 8.0 | 0.00 | 0.00 | 0.00 | 26 | 1007.7 |
| 20260504012317 | 87 | 356 | 1.0 | 7.0 | 0.00 | 0.00 | 0.00 | 26 | 1007.6 |
| 20260504011820 | 87 | 346 | 2.0 | 7.0 | 0.00 | 0.00 | 0.00 | 25 | 1007.7 |
| 20260504011327 | 87 | 352 | 1.0 | 8.0 | 0.00 | 0.00 | 0.00 | 25 | 1007.7 |
| 20260504010817 | 87 | 4 | 1.0 | 8.0 | 0.00 | 0.00 | 0.00 | 25 | 1007.8 |
| 20260504010317 | 87 | 358 | 4.0 | 9.0 | 0.00 | 0.00 | 0.00 | 24 | 1007.8 |
| 20260504005826 | 88 | 356 | 4.0 | 9.0 | 0.00 | 0.00 | 0.00 | 24 | 1007.8 |
| 20260504005326 | 87 | 323 | 1.0 | 8.0 | 0.00 | 0.00 | 0.00 | 25 | 1007.9 |
| 20260504004829 | 88 | 356 | 1.0 | 7.0 | 0.00 | 0.00 | 0.00 | 25 | 1007.9 |
| 20260504004337 | 88 | 347 | 3.0 | 6.0 | 0.00 | 0.00 | 0.00 | 24 | 1007.9 |
| 20260504003819 | 89 | 347 | 0.0 | 6.0 | 0.00 | 0.00 | 0.00 | 24 | 1007.9 |
| 20260504003319 | 88 | 11 | 1.0 | 6.0 | 0.00 | 0.00 | 0.00 | 24 | 1008.0 |
| 20260504002829 | 88 | 1 | 0.0 | 7.0 | 0.00 | 0.00 | 0.00 | 25 | 1008.0 |
| 20260504002329 | 88 | 48 | 1.0 | 7.0 | 0.00 | 0.00 | 0.00 | 25 | 1008.1 |
| 20260504001832 | 88 | 338 | 0.0 | 6.0 | 0.00 | 0.00 | 0.00 | 25 | 1008.0 |
| 20260504001319 | 88 | 335 | 0.0 | 6.0 | 0.00 | 0.00 | 0.00 | 25 | 1008.0 |
| 20260504000822 | 88 | 320 | 1.0 | 7.0 | 0.00 | 0.00 | 0.00 | 24 | 1008.0 |
| 20260504000322 | 88 | 351 | 4.0 | 7.0 | 0.00 | 0.00 | 0.00 | 21 | 1008.0 |
| 20260503235832 | 88 | 342 | 3.0 | 8.0 | 0.00 | 0.00 | 0.00 | 23 | 1008.1 |
| 20260503235312 | 89 | 298 | 1.0 | 4.0 | 0.00 | 0.00 | 0.00 | 22 | 1008.0 |
| 20260503234815 | 89 | 83 | 0.0 | 8.0 | 0.00 | 0.00 | 0.00 | 23 | 1008.1 |